[[{"header":{"parameterUnit":"m.s-1","parameterCategory":2,"la1":30.2991,"la2":30.254,"lo1":-89.0895,"lo2":-89.0444,"dy":0.0017,"dx":0.0017,"nx":28,"ny":28,"refTime":"2025-04-30T21:00:00:Z","depth":"0","parameterNumber":2,"parameterNumberName":"U-component_of_CURRENTS"},"data":[0,0,0,0,0,0,0,0,0,0,0,0,0,0,0,0,0,0,0,0,0,0,0,0,0,0,0,0,0,0,0,0,0,0,0,0,0,0,0,0,0,0,0,0,0,0,0,0,0,0,0,0,0,0,0,0,0,0,0.242,0.242,0,0.2435,0.2435,0.2435,0.241,0.241,0.2409,0.2409,0.2423,0.2424,0.2424,0,0,0,0,0,0,0,0,0,0,0,0,0,0.2361,0.2362,0.242,0.242,0.2421,0.2435,0.2435,0.2435,0.241,0.241,0.2409,0.2409,0.2423,0.2424,0.2425,0,0,0,0,0,0,0,0,0,0,0,0,0,0.2378,0.2362,0.242,0.2414,0.2414,0.2435,0.2435,0.2435,0.241,0.241,0.2409,0.2409,0.2422,0.2424,0.2425,0.2444,0,0,0.2428,0.2429,0,0,0,0,0,0,0,0,0.2377,0.2379,0.2414,0.2414,0.2415,0.2424,0.242,0.2439,0.2411,0.2407,0.2409,0.2408,0.2427,0.2428,0.2425,0.2444,0.2445,0.2428,0.2429,0.2429,0.243,0,0,0,0,0,0,0,0.2376,0.2379,0.2421,0.2415,0.2415,0.2409,0.241,0.2423,0.2416,0.2407,0.2406,0.2416,0.2426,0.2424,0.2425,0.2445,0.2428,0.2429,0.243,0.243,0.2545,0.2547,0,0,0,0,0,0,0.2385,0.2378,0.2421,0.2422,0.2399,0.241,0.2412,0.2418,0.2416,0.2417,0.2417,0.2415,0.2422,0.2424,0.2426,0.2506,0.2429,0.243,0.2431,0.2543,0.2546,0.2548,0,0,0,0,0,0,0.2383,0.2388,0.242,0.2404,0.2408,0.2413,0.242,0.2419,0.2421,0.2424,0.2424,0.2421,0.2422,0.2424,0.2457,0.2504,0.2431,0.2432,0.254,0.2544,0.2547,0.263,0,0,0,0,0,0,0.2382,0.2388,0.2392,0.2405,0.241,0.2453,0.2421,0.242,0.243,0.2428,0.2429,0.2429,0.2422,0.2456,0.2459,0.2505,0.2433,0.2537,0.2542,0.2546,0.2625,0.2636,0.2646,0,0,0,0,0,0.2379,0.2389,0.2392,0.2398,0.2417,0.2455,0.2458,0.2454,0.2431,0.245,0.2449,0.2429,0.2486,0.2459,0.2461,0.2509,0.2535,0.254,0.2546,0.262,0.2634,0.2646,0,0,0,0,0,0,0.2361,0.2389,0.2392,0.2408,0.2442,0.2454,0.2463,0.2461,0.2472,0.2464,0.2453,0.2456,0.2507,0.2497,0.2466,0.2557,0.251,0.2516,0.2566,0.2579,0.259,0.2599,0.2434,0,0,0,0,0,0.2364,0.2379,0.2412,0.2427,0.2443,0.2453,0.2464,0.247,0.2483,0.2485,0.2487,0.2498,0.2532,0.2544,0.2565,0.2607,0.2601,0.2643,0.2654,0.2663,0.2674,0.2723,0.2739,0.2566,0.2566,0.2566,0,0,0.2359,0.2379,0.2385,0.2426,0.244,0.2475,0.2457,0.2485,0.2515,0.2488,0.2518,0.2536,0.2553,0.2608,0.263,0.2603,0.2705,0.2669,0.2677,0.2683,0.273,0.2747,0.2762,0.2569,0.2569,0.2568,0,0,0.2369,0.2379,0.2401,0.2432,0.2473,0.249,0.2503,0.2529,0.2542,0.2581,0.2581,0.2632,0.2652,0.2694,0.2713,0.2798,0.2764,0.28,0.2859,0.2907,0.2921,0.2934,0.2927,0.2938,0.2802,0.2802,0.2802,0,0.2362,0.2394,0.2416,0.2451,0.2478,0.25,0.2537,0.2562,0.2597,0.2623,0.2602,0.2685,0.2701,0.2793,0.2827,0.2825,0.282,0.2805,0.2921,0.2933,0.2945,0.2935,0.2946,0.2807,0.2806,0.2806,0.2805,0,0.2395,0.2422,0.2439,0.249,0.2528,0.2562,0.261,0.2648,0.266,0.2686,0.2769,0.2801,0.2851,0.2877,0.2877,0.2982,0.2939,0.293,0.2884,0.2967,0.2951,0.2961,0.2813,0.2812,0.281,0.2809,0,0,0.2365,0.2445,0.2448,0.2479,0.255,0.2581,0.265,0.2723,0.2762,0.2811,0.287,0.2959,0.2973,0.2998,0.3019,0.307,0.3148,0.3036,0.3037,0.3022,0.3213,0.3079,0.3077,0.3154,0.3157,0.3159,0.316,0,0.2381,0.2448,0.2488,0.255,0.259,0.2644,0.2705,0.2775,0.2822,0.2884,0.2954,0.3012,0.3019,0.3048,0.311,0.3146,0.3182,0.3146,0.314,0.314,0.3007,0.3089,0.2936,0.2916,0.317,0.3171,0.3172,0,0.2391,0.244,0.2505,0.2588,0.2609,0.2649,0.2747,0.2807,0.2912,0.2949,0.3033,0.3068,0.3179,0.3152,0.3261,0.3232,0.3232,0.3245,0.3245,0.3101,0.3027,0.288,0.2925,0.2863,0.3188,0.3187,0.3186,0,0.2358,0.2443,0.2494,0.2521,0.2625,0.2663,0.2718,0.2822,0.2881,0.2988,0.3032,0.3148,0.3195,0.3256,0.329,0.328,0.3369,0.3352,0.3227,0.3215,0.3075,0.3046,0.3055,0.3415,0.3415,0.3415,0.3415,0,0.2355,0.2387,0.2475,0.2501,0.256,0.264,0.2709,0.2781,0.289,0.2959,0.3055,0.3117,0.3225,0.3284,0.3311,0.3296,0.3385,0.325,0.3223,0.3095,0.3069,0.2997,0.2977,0.3415,0.3415,0.3415,0.3415,0,0.2305,0.2365,0.2424,0.2522,0.2545,0.2586,0.2689,0.2742,0.2848,0.2942,0.2979,0.3108,0.3175,0.3248,0.3326,0.329,0.3202,0.3269,0.3081,0.3031,0.2826,0.2815,0.2685,0.2608,0.3131,0.3128,0.3125,0,0.2286,0.2313,0.2411,0.2439,0.2475,0.2541,0.2587,0.2704,0.2765,0.2925,0.2964,0.3059,0.3108,0.3158,0.3121,0.3115,0.308,0.2946,0.2909,0.2803,0.2775,0.2694,0.2634,0.2751,0.2746,0.2742,0.2738,0,0.2251,0.2285,0.2338,0.2396,0.2437,0.2485,0.2557,0.26,0.274,0.2812,0.2905,0.2957,0.2983,0.2899,0.2865,0.2851,0.2787,0.2849,0.282,0.2544,0.2381,0.2294,0.2733,0.2698,0.2702,0.2705,0.2707,0.2709,0.2215,0.2242,0.2311,0.2351,0.2392,0.2418,0.2422,0.25,0.2567,0.2635,0.2756,0.2748,0.2725,0.2646,0.2614,0.2436,0.2476,0.2351,0.2365,0.2306,0.2177,0.2493,0.2377,0.2379,0.2381,0.2383,0.2384,0,0.2175,0.2216,0.2259,0.2306,0.2301,0.2347,0.239,0.2368,0.2383,0.244,0.2478,0.2416,0.231,0.2284,0.2121,0.199,0.1927,0.1938,0.1834,0.1817,0.2169,0.21,0.1822,0.1822,0.1822,0.1822,0.1822,0.1822,0.2164,0.219,0.2214,0.2198,0.2211,0.2162,0.2155,0.213,0.2135,0.2065,0.2002,0.2011,0.2053,0.1952,0.1783,0.1726,0.1624,0.1485,0.1543,0.1843,0.1884,0.1924,0.1856,0.1532,0.1531,0.1099,0.1095,0.1093]},{"header":{"parameterUnit":"m.s-1","parameterCategory":2,"la1":30.2991,"la2":30.254,"lo1":-89.0895,"lo2":-89.0444,"dy":0.0017,"dx":0.0017,"nx":28,"ny":28,"refTime":"2025-04-30T21:00:00:Z","depth":"0","parameterNumber":3,"parameterNumberName":"V-component_of_CURRENTS"},"data":[0,0,0,0,0,0,0,0,0,0,0,0,0,0,0,0,0,0,0,0,0,0,0,0,0,0,0,0,0,0,0,0,0,0,0,0,0,0,0,0,0,0,0,0,0,0,0,0,0,0,0,0,0,0,0,0,0,0,0.0199,0.0199,0,0.0189,0.0189,0.0189,0.0177,0.0177,0.0177,0.0176,0.0166,0.0165,0.0165,0,0,0,0,0,0,0,0,0,0,0,0,0,0.0192,0.0193,0.0199,0.0199,0.0199,0.0189,0.0189,0.0189,0.0177,0.0177,0.0177,0.0176,0.0166,0.0165,0.0165,0,0,0,0,0,0,0,0,0,0,0,0,0,0.019,0.0193,0.0199,0.0192,0.0191,0.0189,0.0189,0.0189,0.0177,0.0177,0.0177,0.0176,0.0166,0.0165,0.0165,0.0169,0,0,0.0165,0.0165,0,0,0,0,0,0,0,0,0.019,0.019,0.0193,0.0193,0.0192,0.0184,0.0182,0.0182,0.0177,0.0182,0.0176,0.0176,0.0172,0.0171,0.017,0.0169,0.0168,0.0165,0.0165,0.0164,0.0164,0,0,0,0,0,0,0,0.019,0.019,0.0195,0.0193,0.0192,0.0184,0.0183,0.0182,0.0179,0.0182,0.0181,0.018,0.0171,0.017,0.0169,0.0168,0.0165,0.0164,0.0164,0.0164,0.0175,0.0176,0,0,0,0,0,0,0.0193,0.0191,0.0195,0.0195,0.019,0.0184,0.0184,0.0187,0.0179,0.0177,0.018,0.018,0.017,0.017,0.0169,0.0196,0.0164,0.0164,0.0164,0.0175,0.0176,0.0176,0,0,0,0,0,0,0.0193,0.0194,0.0196,0.0192,0.0192,0.0185,0.0188,0.0187,0.0184,0.0177,0.0176,0.0179,0.017,0.0169,0.0174,0.0195,0.0164,0.0164,0.0175,0.0175,0.0176,0.0236,0,0,0,0,0,0,0.0193,0.0194,0.0197,0.0193,0.0192,0.0202,0.0188,0.0187,0.0184,0.0183,0.0176,0.0175,0.017,0.0174,0.0174,0.0194,0.0164,0.0174,0.0175,0.0176,0.0233,0.0238,0.0243,0,0,0,0,0,0.0193,0.0202,0.0198,0.0198,0.0198,0.0203,0.0202,0.0195,0.0185,0.0191,0.0184,0.0175,0.0179,0.0175,0.0174,0.0194,0.0174,0.0175,0.0175,0.0231,0.0237,0.0243,0,0,0,0,0,0,0.0201,0.0201,0.0197,0.0205,0.0206,0.0201,0.0205,0.0196,0.0195,0.0195,0.0182,0.0181,0.0193,0.0181,0.0177,0.0198,0.0174,0.0175,0.0216,0.0222,0.0227,0.0256,0.0164,0,0,0,0,0,0.0204,0.0211,0.0209,0.0216,0.0218,0.021,0.021,0.0208,0.0205,0.0204,0.0199,0.0193,0.0196,0.0199,0.0197,0.021,0.02,0.022,0.0225,0.0229,0.0251,0.0255,0.0263,0.0179,0.0179,0.0179,0,0,0.0208,0.021,0.0213,0.0218,0.0217,0.0231,0.0209,0.0216,0.0232,0.0204,0.0221,0.021,0.0201,0.0218,0.0222,0.0212,0.0242,0.023,0.0234,0.0254,0.0257,0.0266,0.0273,0.018,0.018,0.0179,0,0,0.0227,0.0223,0.0238,0.0242,0.0246,0.0246,0.0249,0.0248,0.0251,0.0264,0.0249,0.0256,0.025,0.026,0.026,0.0289,0.0265,0.0278,0.0332,0.0335,0.0343,0.0349,0.0327,0.0331,0.0283,0.0283,0.0283,0,0.0233,0.0253,0.0243,0.0261,0.0272,0.0255,0.0281,0.0283,0.0284,0.03,0.0277,0.0291,0.0278,0.0314,0.0322,0.0304,0.0289,0.0313,0.0344,0.035,0.0356,0.0331,0.0335,0.0286,0.0286,0.0286,0.0285,0,0.0267,0.0283,0.0292,0.0312,0.0322,0.034,0.0345,0.0358,0.0354,0.0359,0.0387,0.0371,0.0385,0.0375,0.0358,0.0396,0.0365,0.0347,0.0334,0.0368,0.0339,0.0342,0.0291,0.029,0.0289,0.0288,0,0,0.0286,0.0313,0.0316,0.0343,0.0354,0.0373,0.04,0.0432,0.0466,0.0459,0.0505,0.0499,0.049,0.0491,0.047,0.0472,0.0484,0.0431,0.043,0.0417,0.0473,0.0429,0.0427,0.047,0.0471,0.0472,0.0429,0,0.0319,0.0368,0.0371,0.0424,0.0454,0.0456,0.049,0.0515,0.0526,0.0563,0.0557,0.0583,0.0533,0.0545,0.0541,0.0507,0.0498,0.0496,0.0435,0.0433,0.0398,0.0432,0.045,0.0412,0.0432,0.0432,0.0432,0,0.0358,0.0388,0.0444,0.0501,0.0515,0.0541,0.0604,0.0634,0.0672,0.0683,0.0703,0.0691,0.0706,0.0652,0.0617,0.0616,0.0554,0.0514,0.0511,0.0459,0.0396,0.0384,0.0416,0.036,0.0437,0.0436,0.0436,0,0.0392,0.0444,0.0494,0.051,0.0564,0.0597,0.0631,0.0674,0.0721,0.0763,0.08,0.0797,0.0807,0.0749,0.0659,0.0641,0.0607,0.0568,0.0467,0.0461,0.0462,0.0455,0.0446,0.0542,0.0542,0.0543,0.0543,0,0.0434,0.0475,0.0516,0.0545,0.0622,0.0643,0.0727,0.0757,0.0816,0.0893,0.0867,0.0922,0.0833,0.0798,0.0701,0.0598,0.0635,0.0492,0.0461,0.0478,0.0474,0.0411,0.0361,0.0541,0.0541,0.0542,0.0542,0,0.0465,0.0486,0.0552,0.0614,0.0639,0.0697,0.0787,0.085,0.0893,0.0992,0.1014,0.1019,0.0974,0.0864,0.0765,0.0653,0.0511,0.0504,0.0516,0.0487,0.0331,0.0283,0.0217,0.018,0.0393,0.0392,0.0391,0,0.0486,0.052,0.0599,0.0645,0.0675,0.0758,0.0821,0.0884,0.0956,0.1063,0.112,0.1104,0.1117,0.0941,0.0748,0.0569,0.0483,0.0441,0.0414,0.0343,0.0266,0.0228,0.02,0.0425,0.0425,0.0424,0.0424,0,0.0527,0.0549,0.0602,0.0695,0.0765,0.0855,0.0949,0.1019,0.1112,0.1203,0.1308,0.1329,0.1163,0.1004,0.0733,0.0599,0.04,0.0423,0.0367,0.0312,0.0257,0.02,0.041,0.0419,0.042,0.042,0.042,0.042,0.0554,0.0597,0.0663,0.0755,0.0836,0.0944,0.1029,0.1141,0.1275,0.1423,0.1433,0.1481,0.1237,0.0884,0.0697,0.0369,0.0353,0.0276,0.0227,0.0198,0.0162,0.0345,0.0307,0.0306,0.0306,0.0306,0.0306,0,0.059,0.064,0.0722,0.083,0.0922,0.0962,0.1111,0.1209,0.1377,0.1499,0.1593,0.1494,0.1207,0.0887,0.0449,0.0234,0.0157,0.0118,0.0097,0.0079,0.0269,0.0272,0.0205,0.0205,0.0205,0.0205,0.0205,0.0205,0.061,0.0686,0.073,0.088,0.096,0.109,0.1179,0.1332,0.1445,0.1597,0.1624,0.1624,0.1392,0.0661,0.0207,0.0099,-0.0025,-0.0077,-0.0146,0.0014,0.0026,0.0038,0.0033,-0.0084,-0.0084,-0.0288,-0.029,-0.0292]}],[{"header":{"parameterUnit":"m.s-1","parameterCategory":2,"la1":30.2991,"la2":30.254,"lo1":-89.0895,"lo2":-89.0444,"dy":0.0017,"dx":0.0017,"nx":28,"ny":28,"refTime":"2025-04-30T21:00:00:Z","depth":"2","parameterNumber":2,"parameterNumberName":"U-component_of_CURRENTS"},"data":[0,0,0,0,0,0,0,0,0,0,0,0,0,0,0,0,0,0,0,0,0,0,0,0,0,0,0,0,0,0,0,0,0,0,0,0,0,0,0,0,0,0,0,0,0,0,0,0,0,0,0,0,0,0,0,0,0,0,0.2017,0.2017,0,0.2008,0.2007,0.2007,0.201,0.2011,0.2011,0.2012,0.203,0.203,0.203,0,0,0,0,0,0,0,0,0,0,0,0,0,0.2009,0.2009,0.2017,0.2018,0.2018,0.2008,0.2007,0.2007,0.201,0.2011,0.2012,0.2012,0.203,0.203,0.203,0,0,0,0,0,0,0,0,0,0,0,0,0,0.2005,0.2009,0.2017,0.202,0.2021,0.2008,0.2007,0.2007,0.201,0.2011,0.2012,0.2012,0.203,0.203,0.203,0.2017,0,0,0.2031,0.2031,0,0,0,0,0,0,0,0,0.2005,0.2005,0.202,0.202,0.202,0.2014,0.2012,0.2013,0.201,0.2011,0.2012,0.2013,0.2029,0.2029,0.2021,0.2018,0.2019,0.2031,0.2031,0.2031,0.2031,0,0,0,0,0,0,0,0.2006,0.2005,0.2011,0.202,0.202,0.2012,0.2012,0.2011,0.2014,0.2011,0.2012,0.2015,0.2029,0.2021,0.2022,0.2019,0.2031,0.2031,0.2031,0.2031,0.2113,0.2115,0,0,0,0,0,0,0.2013,0.2006,0.2011,0.2011,0.2018,0.2012,0.2012,0.2013,0.2014,0.2015,0.2015,0.2016,0.202,0.2022,0.2022,0.2093,0.2031,0.2031,0.2031,0.2111,0.2114,0.2116,0,0,0,0,0,0,0.2013,0.2013,0.2012,0.201,0.201,0.2012,0.2012,0.2012,0.2018,0.2017,0.2018,0.2023,0.2021,0.2022,0.2054,0.209,0.2031,0.2031,0.2109,0.2112,0.2115,0.2178,0,0,0,0,0,0,0.2013,0.2013,0.202,0.2011,0.201,0.2019,0.2012,0.2012,0.2019,0.202,0.2024,0.2025,0.2022,0.2054,0.2054,0.2089,0.2031,0.2106,0.211,0.2114,0.2173,0.2183,0.2191,0,0,0,0,0,0.2012,0.2016,0.202,0.2021,0.2018,0.202,0.2019,0.202,0.2019,0.2026,0.2042,0.2026,0.208,0.2056,0.2055,0.2091,0.2104,0.2109,0.2114,0.2169,0.2181,0.2191,0,0,0,0,0,0,0.2014,0.2017,0.2021,0.2026,0.2031,0.2022,0.2027,0.2026,0.204,0.2048,0.2044,0.2047,0.2094,0.2084,0.2057,0.213,0.2093,0.2098,0.2135,0.2146,0.2155,0.2165,0.2031,0,0,0,0,0,0.2018,0.2022,0.2027,0.2031,0.2036,0.2033,0.2035,0.204,0.2048,0.2054,0.2062,0.2081,0.2109,0.212,0.2138,0.2166,0.2166,0.2194,0.2203,0.221,0.2221,0.2258,0.2271,0.2132,0.2132,0.2132,0,0,0.2019,0.2022,0.2025,0.2032,0.2034,0.2047,0.2036,0.2047,0.2068,0.2055,0.2091,0.2111,0.2125,0.2171,0.219,0.2167,0.2251,0.2216,0.2223,0.2229,0.2265,0.2278,0.229,0.2135,0.2135,0.2134,0,0,0.2024,0.2028,0.2038,0.2047,0.2062,0.2062,0.207,0.2078,0.2095,0.2132,0.2141,0.2186,0.221,0.2238,0.2252,0.2319,0.23,0.2327,0.2375,0.2412,0.2423,0.2433,0.2448,0.2458,0.2328,0.2328,0.2328,0,0.2029,0.2038,0.2042,0.2058,0.2071,0.2072,0.2093,0.2107,0.213,0.216,0.2159,0.2243,0.2247,0.2317,0.2345,0.234,0.2349,0.2328,0.2422,0.2432,0.2441,0.2454,0.2465,0.2331,0.2331,0.2331,0.233,0,0.2043,0.2056,0.2062,0.2085,0.2103,0.2116,0.2144,0.2175,0.2199,0.2221,0.2305,0.2329,0.2381,0.2395,0.2388,0.2466,0.2447,0.243,0.239,0.2459,0.2468,0.2478,0.2337,0.2335,0.2334,0.2333,0,0,0.2031,0.2066,0.2069,0.2086,0.212,0.2131,0.2188,0.2236,0.2276,0.2329,0.2393,0.246,0.2482,0.2501,0.251,0.2541,0.2607,0.2516,0.2516,0.2522,0.268,0.2565,0.2565,0.2607,0.2609,0.2611,0.2658,0,0.2039,0.2071,0.2093,0.2126,0.2144,0.2183,0.223,0.2285,0.2332,0.2392,0.2456,0.2514,0.2518,0.255,0.2592,0.2606,0.2639,0.2595,0.2619,0.262,0.2503,0.2575,0.2364,0.238,0.2668,0.267,0.2671,0,0.2041,0.2065,0.2103,0.2152,0.2166,0.2194,0.2276,0.2319,0.2413,0.2457,0.2545,0.2582,0.2666,0.2641,0.2729,0.2703,0.2703,0.2705,0.2707,0.2585,0.2525,0.236,0.2387,0.2688,0.2686,0.2685,0.2684,0,0.2016,0.2064,0.2094,0.211,0.2173,0.2215,0.2255,0.2347,0.2395,0.2499,0.2548,0.2652,0.2702,0.2749,0.2765,0.2757,0.2828,0.2813,0.2714,0.2705,0.2523,0.2493,0.2868,0.2868,0.2868,0.2868,0.2868,0,0.2001,0.202,0.2085,0.2096,0.2144,0.2205,0.2267,0.2328,0.2425,0.248,0.2576,0.2632,0.2732,0.278,0.2792,0.2782,0.2856,0.2738,0.2719,0.2537,0.251,0.277,0.2758,0.287,0.2869,0.2869,0.2869,0,0.1961,0.1998,0.2029,0.2103,0.2126,0.2165,0.2253,0.2299,0.2399,0.2477,0.2517,0.2638,0.2703,0.2767,0.2826,0.2796,0.2802,0.2769,0.2537,0.2489,0.2652,0.2643,0.2693,0.2689,0.2686,0.2684,0.2682,0,0.1941,0.1955,0.202,0.2039,0.207,0.2132,0.2173,0.2274,0.2321,0.2463,0.2491,0.2595,0.2628,0.2676,0.2652,0.2653,0.2731,0.244,0.2387,0.2663,0.2639,0.2635,0.263,0.2176,0.217,0.2165,0.2161,0,0.1905,0.193,0.1955,0.1999,0.2034,0.2071,0.2135,0.2157,0.2276,0.2335,0.2399,0.2439,0.2495,0.2394,0.2391,0.2364,0.2428,0.2337,0.2702,0.2241,0.2175,0.2152,0.2165,0.2117,0.2121,0.2124,0.2127,0.2129,0.1873,0.1882,0.1918,0.1947,0.1981,0.1991,0.1981,0.2037,0.207,0.2116,0.2225,0.2208,0.2232,0.2118,0.2044,0.1993,0.2169,0.2076,0.2091,0.2112,0.2032,0.1964,0.185,0.1853,0.1855,0.1857,0.1859,0,0.183,0.1847,0.1868,0.1882,0.1869,0.1928,0.1939,0.1894,0.1864,0.193,0.1954,0.1793,0.1713,0.1747,0.1595,0.1578,0.1575,0.1517,0.1502,0.1547,0.1586,0.148,0.1152,0.1149,0.1147,0.1145,0,0,0.181,0.1799,0.1802,0.1759,0.1773,0.1725,0.1701,0.1644,0.1641,0.1566,0.1545,0.166,0.1704,0.1419,0.1368,0.1234,0.1387,0.1184,0.1754,0.1783,0.182,0.191,0.1795,0,0,0,0,0]},{"header":{"parameterUnit":"m.s-1","parameterCategory":2,"la1":30.2991,"la2":30.254,"lo1":-89.0895,"lo2":-89.0444,"dy":0.0017,"dx":0.0017,"nx":28,"ny":28,"refTime":"2025-04-30T21:00:00:Z","depth":"2","parameterNumber":3,"parameterNumberName":"V-component_of_CURRENTS"},"data":[0,0,0,0,0,0,0,0,0,0,0,0,0,0,0,0,0,0,0,0,0,0,0,0,0,0,0,0,0,0,0,0,0,0,0,0,0,0,0,0,0,0,0,0,0,0,0,0,0,0,0,0,0,0,0,0,0,0,0.0017,0.0017,0,0.001,0.001,0.001,0.0003,0.0003,0.0003,0.0003,-0.0012,-0.0012,-0.0013,0,0,0,0,0,0,0,0,0,0,0,0,0,0.0023,0.0023,0.0017,0.0017,0.0017,0.001,0.001,0.001,0.0003,0.0003,0.0003,0.0002,-0.0012,-0.0012,-0.0013,0,0,0,0,0,0,0,0,0,0,0,0,0,0.0019,0.0023,0.0017,0.0012,0.0011,0.001,0.001,0.001,0.0003,0.0003,0.0003,0.0002,-0.0012,-0.0012,-0.0013,-0.001,0,0,-0.0014,-0.0014,0,0,0,0,0,0,0,0,0.002,0.0019,0.0013,0.0012,0.0011,0.0006,0.0006,0.0003,0.0003,0.0007,0.0003,0.0002,-0.0007,-0.0008,-0.0007,-0.001,-0.0011,-0.0014,-0.0014,-0.0014,-0.0014,0,0,0,0,0,0,0,0.002,0.002,0.0015,0.0013,0.0012,0.0009,0.0008,0.0006,0.0002,0.0007,0.0006,0.0004,-0.0007,-0.0007,-0.0008,-0.0011,-0.0014,-0.0014,-0.0014,-0.0014,-0.0009,-0.0009,0,0,0,0,0,0,0.0019,0.002,0.0015,0.0015,0.0014,0.0009,0.0008,0.0009,0.0002,0.0001,0.0004,0.0003,-0.0006,-0.0007,-0.0008,0.0009,-0.0014,-0.0014,-0.0015,-0.001,-0.0009,-0.0009,0,0,0,0,0,0,0.0019,0.0019,0.0016,0.0016,0.0015,0.0009,0.001,0.0009,0.0009,0.0,-0.0001,0.0005,-0.0006,-0.0008,-0.0007,0.0008,-0.0015,-0.0015,-0.001,-0.001,-0.0009,0.0035,0,0,0,0,0,0,0.002,0.0019,0.0022,0.0016,0.0015,0.002,0.001,0.0009,0.0008,0.0007,0.0001,-0.0001,-0.0007,-0.0006,-0.0007,0.0007,-0.0015,-0.0011,-0.001,-0.0009,0.0033,0.0037,0.0041,0,0,0,0,0,0.002,0.0028,0.0023,0.0022,0.0019,0.002,0.002,0.0014,0.0008,0.0013,0.0007,-0.0001,-0.0003,-0.0006,-0.0008,0.0007,-0.0011,-0.001,-0.0009,0.0032,0.0037,0.0041,0,0,0,0,0,0,0.0033,0.0027,0.0022,0.0027,0.0024,0.0018,0.0023,0.0016,0.0015,0.0016,0.0004,0.0002,0.0009,-0.0001,-0.0004,0.0009,-0.0009,-0.0008,0.0023,0.0028,0.0031,0.0051,-0.0015,0,0,0,0,0,0.0036,0.0039,0.0033,0.0037,0.0037,0.0029,0.0029,0.0026,0.0022,0.0022,0.0016,0.0011,0.0012,0.0012,0.001,0.0017,0.0008,0.0024,0.0028,0.0031,0.0046,0.0042,0.0047,-0.0007,-0.0007,-0.0007,0,0,0.0042,0.0039,0.004,0.0039,0.0037,0.005,0.0029,0.0033,0.0047,0.002,0.0036,0.0023,0.0016,0.0026,0.0028,0.002,0.0039,0.0032,0.0035,0.0049,0.0043,0.0048,0.0053,-0.0006,-0.0006,-0.0006,0,0,0.0058,0.0052,0.0063,0.0065,0.0064,0.0064,0.0065,0.0061,0.0063,0.0072,0.0059,0.0056,0.0054,0.0055,0.0055,0.0076,0.0058,0.007,0.0107,0.0103,0.0107,0.0111,0.01,0.0102,0.0072,0.0073,0.0073,0,0.0066,0.008,0.0066,0.0081,0.0091,0.0073,0.0094,0.0096,0.0093,0.0103,0.0084,0.0089,0.0073,0.0097,0.01,0.0086,0.0077,0.0093,0.0109,0.0113,0.0116,0.0103,0.0105,0.0075,0.0075,0.0074,0.0074,0,0.0095,0.0108,0.0115,0.0131,0.0138,0.0152,0.0153,0.0162,0.0158,0.0159,0.0174,0.0152,0.0158,0.0146,0.0129,0.0149,0.0131,0.0113,0.0101,0.0124,0.0108,0.011,0.0078,0.0077,0.0077,0.0076,0,0,0.0114,0.0133,0.0137,0.0158,0.0168,0.0182,0.0206,0.0228,0.0256,0.0241,0.0274,0.0258,0.0242,0.024,0.0215,0.0204,0.0206,0.0171,0.0169,0.0165,0.0192,0.0165,0.0164,0.019,0.0191,0.0191,0.0169,0,0.0145,0.0186,0.0186,0.0233,0.0259,0.0257,0.0286,0.0303,0.0309,0.0333,0.0312,0.033,0.028,0.0284,0.0266,0.0227,0.0214,0.0214,0.0165,0.0164,0.0143,0.0167,0.0176,0.0156,0.017,0.017,0.017,0,0.0179,0.0206,0.0254,0.0299,0.0311,0.0335,0.0385,0.041,0.0433,0.0438,0.0443,0.0425,0.0418,0.0366,0.0318,0.032,0.0263,0.0222,0.022,0.0186,0.0142,0.0136,0.0158,0.0173,0.0173,0.0173,0.0172,0,0.0211,0.0257,0.03,0.0314,0.0358,0.0384,0.0412,0.0444,0.0484,0.0509,0.0537,0.0515,0.0515,0.045,0.0357,0.0342,0.0294,0.0263,0.0187,0.0184,0.0179,0.0174,0.0229,0.0229,0.0229,0.023,0.023,0,0.0249,0.0286,0.032,0.0346,0.0414,0.0428,0.05,0.0522,0.0568,0.0632,0.0597,0.0633,0.0536,0.0493,0.0395,0.0301,0.0324,0.0206,0.0183,0.0192,0.019,0.0194,0.019,0.0229,0.0229,0.0229,0.0229,0,0.0278,0.0296,0.0353,0.0405,0.0429,0.048,0.056,0.0616,0.0647,0.0729,0.0744,0.0729,0.0677,0.0568,0.0461,0.0359,0.0264,0.0218,0.0231,0.021,0.0145,0.0144,0.0145,0.0144,0.0143,0.0143,0.0142,0,0.0297,0.0327,0.0397,0.0441,0.0467,0.0542,0.0602,0.0653,0.0717,0.0793,0.0838,0.0813,0.0805,0.0633,0.0461,0.0299,0.0265,0.0181,0.0153,0.0163,0.014,0.014,0.014,0.0159,0.0159,0.0159,0.0158,0,0.0337,0.0356,0.0402,0.0491,0.0558,0.0642,0.0728,0.0789,0.0863,0.0929,0.0997,0.0995,0.0845,0.0685,0.0452,0.0332,0.0208,0.0169,0.0192,0.0176,0.0173,0.0152,0.0152,0.0156,0.0156,0.0156,0.0156,0.0156,0.0367,0.0405,0.0463,0.0551,0.063,0.0731,0.0806,0.0898,0.1004,0.1103,0.1096,0.1091,0.091,0.0618,0.0415,0.0194,0.0208,0.0113,0.0116,0.0118,0.012,0.0116,0.0088,0.0088,0.0088,0.0088,0.0088,0,0.0408,0.045,0.0526,0.0624,0.0711,0.0751,0.0885,0.0957,0.108,0.1159,0.1206,0.103,0.0853,0.0636,0.0321,0.0131,0.0114,0.0052,0.0079,0.0084,0.0087,0.0088,0.0047,0.0046,0.0046,0.0045,0,0,0.043,0.0498,0.0534,0.0672,0.0747,0.0867,0.0944,0.105,0.1127,0.1195,0.1195,0.1173,0.092,0.068,0.0426,0.024,0.0199,0.0191,0.0245,0.0312,0.0317,0.0142,0.0152,0,0,0,0,0]}],[{"header":{"parameterUnit":"m.s-1","parameterCategory":2,"la1":30.2991,"la2":30.254,"lo1":-89.0895,"lo2":-89.0444,"dy":0.0017,"dx":0.0017,"nx":28,"ny":28,"refTime":"2025-04-30T21:00:00:Z","depth":"4","parameterNumber":2,"parameterNumberName":"U-component_of_CURRENTS"},"data":[0,0,0,0,0,0,0,0,0,0,0,0,0,0,0,0,0,0,0,0,0,0,0,0,0,0,0,0,0,0,0,0,0,0,0,0,0,0,0,0,0,0,0,0,0,0,0,0,0,0,0,0,0,0,0,0,0,0,0.1142,0.1142,0,0.1142,0.1142,0.1142,0.116,0.1161,0.1161,0.1162,0.1178,0.1178,0.1177,0,0,0,0,0,0,0,0,0,0,0,0,0,0.1163,0.1163,0.1142,0.1142,0.1142,0.1142,0.1142,0.1142,0.116,0.1161,0.1161,0.1162,0.1178,0.1178,0.1177,0,0,0,0,0,0,0,0,0,0,0,0,0,0.1156,0.1162,0.1142,0.1152,0.1154,0.1142,0.1142,0.1142,0.116,0.1161,0.1162,0.1162,0.1178,0.1178,0.1177,0.1157,0,0,0.1177,0.1176,0,0,0,0,0,0,0,0,0.1156,0.1155,0.1151,0.1152,0.1153,0.1153,0.1155,0.1148,0.1159,0.1156,0.1162,0.1163,0.1171,0.1172,0.1167,0.1157,0.1158,0.1177,0.1176,0.1176,0.1176,0,0,0,0,0,0,0,0.1157,0.1155,0.114,0.1151,0.1152,0.1159,0.1159,0.1154,0.1157,0.1156,0.1158,0.116,0.1172,0.1167,0.1168,0.1158,0.1177,0.1176,0.1176,0.1176,0.1236,0.1237,0,0,0,0,0,0,0.1159,0.1155,0.114,0.114,0.1159,0.1158,0.1158,0.1151,0.1157,0.1159,0.1159,0.1161,0.1167,0.1168,0.1168,0.1233,0.1176,0.1176,0.1176,0.1234,0.1236,0.1238,0,0,0,0,0,0,0.1159,0.1157,0.114,0.115,0.1149,0.1157,0.1149,0.115,0.1173,0.116,0.1162,0.1184,0.1168,0.1169,0.119,0.123,0.1176,0.1176,0.1232,0.1235,0.1237,0.1305,0,0,0,0,0,0,0.1159,0.1157,0.1168,0.115,0.1148,0.1151,0.1148,0.115,0.1172,0.1175,0.1181,0.1182,0.1169,0.1191,0.119,0.1229,0.1176,0.123,0.1233,0.1236,0.1301,0.131,0.1317,0,0,0,0,0,0.116,0.1162,0.1168,0.1167,0.1158,0.1152,0.1152,0.116,0.1173,0.1185,0.1194,0.1183,0.1212,0.1191,0.119,0.123,0.1228,0.1232,0.1236,0.1297,0.1308,0.1317,0,0,0,0,0,0,0.118,0.1164,0.117,0.1169,0.1173,0.1156,0.117,0.1176,0.1191,0.1204,0.1194,0.1195,0.1233,0.122,0.1199,0.1259,0.1223,0.1227,0.127,0.128,0.1288,0.1267,0.1175,0,0,0,0,0,0.1188,0.1188,0.1177,0.1183,0.1185,0.1185,0.1191,0.1196,0.12,0.1209,0.1215,0.1227,0.1243,0.1253,0.1259,0.1281,0.1279,0.1311,0.132,0.1327,0.1311,0.1362,0.1373,0.1251,0.1251,0.1251,0,0,0.1199,0.1192,0.1194,0.1188,0.1191,0.1192,0.1191,0.1206,0.1219,0.1207,0.124,0.1256,0.1256,0.1289,0.1306,0.1286,0.1363,0.1332,0.1338,0.1317,0.1367,0.1379,0.139,0.1254,0.1253,0.1253,0,0,0.1207,0.1213,0.1213,0.1215,0.1224,0.122,0.1232,0.1235,0.1254,0.1279,0.1286,0.1321,0.1338,0.1348,0.1353,0.1409,0.1407,0.143,0.1453,0.1504,0.1514,0.1523,0.1543,0.1553,0.1433,0.1433,0.1433,0,0.1228,0.1216,0.1216,0.1216,0.1225,0.1235,0.1242,0.1254,0.1271,0.1296,0.1302,0.1358,0.1361,0.1401,0.1422,0.1427,0.1449,0.1414,0.1515,0.1523,0.1531,0.1549,0.156,0.1437,0.1436,0.1436,0.1436,0,0.1221,0.1228,0.1231,0.1232,0.1243,0.1252,0.1265,0.1294,0.1324,0.1342,0.1405,0.1416,0.1453,0.147,0.1458,0.1525,0.152,0.1522,0.1487,0.1548,0.1563,0.1573,0.1442,0.1441,0.144,0.1439,0,0,0.1223,0.1225,0.1231,0.1234,0.1254,0.1255,0.1294,0.1325,0.136,0.1402,0.1453,0.1489,0.152,0.1527,0.1539,0.157,0.1646,0.1572,0.1573,0.1586,0.1752,0.1628,0.1626,0.1682,0.1684,0.1685,0.1743,0,0.1223,0.1219,0.1229,0.1243,0.1239,0.1274,0.1303,0.1344,0.139,0.1444,0.1488,0.154,0.1537,0.1573,0.1609,0.1638,0.1673,0.1628,0.1694,0.1695,0.1574,0.1633,0.1691,0.175,0.1752,0.1753,0.1754,0,0.1209,0.1207,0.1217,0.1238,0.1245,0.127,0.1329,0.136,0.144,0.1483,0.1556,0.1593,0.1655,0.1644,0.1727,0.1709,0.1734,0.1745,0.1748,0.1606,0.1587,0.1675,0.1771,0.177,0.1768,0.1767,0.1766,0,0.1181,0.1199,0.1207,0.1213,0.1242,0.128,0.1314,0.1387,0.1424,0.1527,0.1573,0.1655,0.1707,0.1758,0.179,0.1781,0.1864,0.1859,0.1766,0.1757,0.182,0.181,0.1916,0.1916,0.1916,0.1916,0.1916,0,0.1154,0.1163,0.1202,0.1201,0.1233,0.1273,0.133,0.138,0.1464,0.1511,0.1605,0.165,0.1743,0.18,0.1819,0.1815,0.1903,0.1764,0.1766,0.1848,0.1841,0.1827,0.1816,0.1918,0.1918,0.1917,0.1917,0,0.1111,0.1136,0.1143,0.1189,0.1216,0.1244,0.1328,0.1361,0.1457,0.1526,0.1565,0.1675,0.1751,0.1812,0.1888,0.1839,0.1851,0.1829,0.1901,0.1907,0.1701,0.1693,0.1728,0.1724,0.172,0.1718,0.1715,0,0.1083,0.1083,0.1129,0.1146,0.1177,0.1231,0.1266,0.1355,0.139,0.1521,0.1542,0.1656,0.1718,0.1725,0.1799,0.1828,0.1808,0.1791,0.174,0.1684,0.1684,0.1681,0.1678,0.171,0.1709,0.1709,0.1708,0,0.1029,0.1058,0.1061,0.1097,0.1138,0.116,0.1223,0.1236,0.1336,0.1437,0.1485,0.1527,0.1603,0.1656,0.1689,0.1706,0.1785,0.1756,0.1762,0.1715,0.1664,0.1666,0.1667,0.1696,0.1698,0.1699,0.17,0,0.0999,0.0987,0.1007,0.103,0.1074,0.1073,0.1111,0.115,0.1194,0.1335,0.1352,0.1477,0.1587,0.1594,0.1627,0.163,0.1606,0.1537,0.1554,0.1568,0.1488,0.1397,0.1348,0,0,0,0,0,0.0961,0.0934,0.0942,0.0943,0.0981,0.1009,0.107,0.111,0.1212,0.1208,0.1273,0.1339,0.1393,0.1461,0.1434,0.1557,0.1609,0.1516,0.1538,0.1634,0.1647,0.1566,0,0,0,0,0,0,0.093,0.0928,0.0907,0.0873,0.0869,0.0892,0.0927,0.0993,0.0994,0.1115,0.1159,0.1251,0.1334,0.1404,0.1412,0.1429,0.1409,0.1596,0.1591,0.1626,0.1638,0.1649,0.157,0,0,0,0,0]},{"header":{"parameterUnit":"m.s-1","parameterCategory":2,"la1":30.2991,"la2":30.254,"lo1":-89.0895,"lo2":-89.0444,"dy":0.0017,"dx":0.0017,"nx":28,"ny":28,"refTime":"2025-04-30T21:00:00:Z","depth":"4","parameterNumber":3,"parameterNumberName":"V-component_of_CURRENTS"},"data":[0,0,0,0,0,0,0,0,0,0,0,0,0,0,0,0,0,0,0,0,0,0,0,0,0,0,0,0,0,0,0,0,0,0,0,0,0,0,0,0,0,0,0,0,0,0,0,0,0,0,0,0,0,0,0,0,0,0,0.0012,0.0012,0,0.0014,0.0014,0.0014,0.0011,0.0011,0.001,0.001,0.0014,0.0014,0.0014,0,0,0,0,0,0,0,0,0,0,0,0,0,0.001,0.0011,0.0012,0.0012,0.0012,0.0014,0.0014,0.0014,0.0011,0.0011,0.001,0.001,0.0014,0.0014,0.0014,0,0,0,0,0,0,0,0,0,0,0,0,0,0.0013,0.0011,0.0012,0.001,0.001,0.0014,0.0014,0.0014,0.0011,0.0011,0.001,0.001,0.0014,0.0014,0.0014,0.0023,0,0,0.0016,0.0016,0,0,0,0,0,0,0,0,0.0012,0.0013,0.001,0.001,0.001,0.0011,0.0014,0.0017,0.0011,0.0012,0.001,0.001,0.0012,0.0013,0.0015,0.0023,0.0024,0.0016,0.0016,0.0016,0.0016,0,0,0,0,0,0,0,0.0012,0.0013,0.0014,0.001,0.001,0.001,0.001,0.0015,0.0015,0.0011,0.0011,0.0009,0.0012,0.0015,0.0016,0.0024,0.0016,0.0016,0.0016,0.0017,0.0035,0.0035,0,0,0,0,0,0,0.001,0.0013,0.0014,0.0014,0.0009,0.001,0.001,0.0012,0.0014,0.0014,0.001,0.0009,0.0014,0.0015,0.0016,0.0033,0.0016,0.0017,0.0017,0.0035,0.0035,0.0035,0,0,0,0,0,0,0.001,0.001,0.0014,0.0012,0.0012,0.001,0.0012,0.0012,0.0013,0.0013,0.0013,0.0011,0.0014,0.0015,0.0021,0.0033,0.0017,0.0017,0.0035,0.0035,0.0035,0.0064,0,0,0,0,0,0,0.001,0.001,0.0013,0.0012,0.0012,0.002,0.0012,0.0012,0.0012,0.0012,0.0014,0.0014,0.0014,0.0021,0.0022,0.0033,0.0018,0.0034,0.0035,0.0035,0.0062,0.0065,0.0067,0,0,0,0,0,0.001,0.0017,0.0013,0.0013,0.0015,0.002,0.002,0.0018,0.0013,0.0018,0.0017,0.0014,0.0024,0.0022,0.0023,0.0034,0.0034,0.0035,0.0035,0.0061,0.0064,0.0067,0,0,0,0,0,0,0.0018,0.0017,0.0013,0.0018,0.0019,0.0019,0.0023,0.0019,0.0023,0.0023,0.0019,0.002,0.0028,0.0026,0.0023,0.004,0.0028,0.0029,0.0047,0.005,0.0053,0.0062,0.0018,0,0,0,0,0,0.002,0.0024,0.0022,0.0026,0.0027,0.0025,0.0026,0.0025,0.0027,0.0028,0.0027,0.0028,0.0032,0.0036,0.0038,0.005,0.0036,0.0057,0.0059,0.0061,0.0069,0.0051,0.0053,0.0037,0.0037,0.0037,0,0,0.0024,0.0023,0.0025,0.0028,0.0028,0.0042,0.0025,0.0031,0.0045,0.0028,0.0044,0.0036,0.0036,0.0048,0.0052,0.0048,0.0057,0.0062,0.0064,0.0071,0.0052,0.0053,0.0055,0.0037,0.0037,0.0037,0,0,0.0037,0.0033,0.0043,0.0048,0.0051,0.0053,0.0054,0.0055,0.0058,0.007,0.0059,0.0056,0.0066,0.0066,0.0069,0.0084,0.0068,0.0084,0.0109,0.0091,0.0092,0.0093,0.0073,0.0072,0.0088,0.0088,0.0088,0,0.0042,0.0056,0.0047,0.0061,0.0071,0.006,0.0079,0.0083,0.0086,0.0092,0.008,0.0083,0.0077,0.0092,0.0097,0.0091,0.0076,0.01,0.0094,0.0095,0.0095,0.0075,0.0073,0.009,0.009,0.0089,0.0089,0,0.0066,0.0079,0.0087,0.0103,0.0111,0.0126,0.013,0.0138,0.0135,0.0137,0.0143,0.0127,0.0131,0.0124,0.0118,0.0122,0.0108,0.0096,0.0088,0.0099,0.0076,0.0074,0.0092,0.0091,0.0091,0.009,0,0,0.0077,0.0099,0.0104,0.0123,0.0137,0.015,0.0171,0.019,0.0207,0.0196,0.0213,0.0204,0.0186,0.0186,0.0168,0.0151,0.0135,0.0129,0.0127,0.0112,0.0094,0.0095,0.0092,0.0121,0.0121,0.0121,0.0075,0,0.0102,0.0138,0.0143,0.0186,0.0208,0.021,0.0234,0.0248,0.0251,0.0261,0.0238,0.0245,0.0214,0.0212,0.019,0.0152,0.0132,0.0149,0.0085,0.0083,0.0084,0.0091,0.012,0.0074,0.0073,0.0073,0.0072,0,0.0128,0.0151,0.0194,0.0235,0.0246,0.0269,0.0306,0.0328,0.0337,0.0336,0.0328,0.0306,0.0287,0.0252,0.0192,0.0204,0.0154,0.0116,0.0113,0.0106,0.0081,0.0061,0.0068,0.0069,0.0069,0.0069,0.0069,0,0.0146,0.019,0.0227,0.0241,0.0282,0.0305,0.0331,0.0351,0.038,0.0383,0.0392,0.0359,0.0348,0.0282,0.0208,0.0198,0.0134,0.0109,0.0062,0.0061,0.006,0.006,0.0062,0.0062,0.0062,0.0062,0.0063,0,0.0172,0.0205,0.0241,0.0263,0.0319,0.0336,0.0391,0.0408,0.0435,0.0474,0.0433,0.0442,0.0355,0.0308,0.0226,0.0146,0.0148,0.0071,0.0053,0.0072,0.0074,0.0058,0.0058,0.0061,0.0061,0.0061,0.0062,0,0.0188,0.0208,0.0257,0.0306,0.0328,0.037,0.0438,0.0477,0.0493,0.0538,0.0541,0.0509,0.0451,0.0359,0.0256,0.0182,0.0095,0.0063,0.0099,0.0082,0.0024,0.0027,0.0001,0.0001,0.0001,0.0001,0.0,0,0.0199,0.0224,0.0288,0.0326,0.0352,0.0416,0.0465,0.0505,0.0549,0.058,0.0603,0.0562,0.0526,0.0387,0.0281,0.0132,0.0104,0.0048,0.0027,0.0035,0.002,0.0022,0.0024,-0.0,-0.0,-0.0,-0.0,0,0.0223,0.0242,0.0283,0.0357,0.0415,0.0485,0.0554,0.0588,0.0638,0.0649,0.0656,0.0583,0.052,0.04,0.0292,0.0179,0.0078,0.0045,0.0044,0.0023,0.0033,0.0019,0.0021,-0.0001,-0.0001,-0.0001,-0.0001,0,0.0243,0.0273,0.0324,0.0393,0.0464,0.0536,0.0571,0.0625,0.0666,0.0695,0.0696,0.062,0.058,0.0425,0.0324,0.0219,0.0177,0.0117,0.0112,0.0111,0.0153,0.0182,0.0184,0,0,0,0,0,0.0264,0.03,0.0361,0.0434,0.0503,0.0547,0.0626,0.0656,0.0696,0.0708,0.0705,0.0646,0.0502,0.0441,0.0337,0.0303,0.0151,0.0174,0.0077,-0.0005,-0.0004,0.0026,0,0,0,0,0,0,0.028,0.0332,0.036,0.0453,0.0507,0.0589,0.0639,0.067,0.0678,0.0696,0.0628,0.0598,0.0464,0.0563,0.0329,0.0298,0.0215,0.0113,0.011,-0.0006,-0.0005,-0.0004,0.0027,0,0,0,0,0]}]]